Weather History for KCHS - January, 2014

Change the Weather History Date:

Friday, January 31, 2014

  Actual Average Record
Temperature  
Mean Temperature 47 °F 49 °F  
Max Temperature 61 °F 60 °F 81 °F (1975)
Min Temperature 33 °F 38 °F 15 °F (1966)
Degree Days  
Heating Degree Days 18 16  
Month to date heating degree days 598 520  
Since 1 July heating degree days 1198 1259  
Cooling Degree Days 0 0  
Month to date cooling degree days 2 2  
Year to date cooling degree days 2 2  
Moisture  
Dew Point 33 °F    
Average Humidity 65    
Maximum Humidity 93    
Minimum Humidity 36    
Precipitation  
Precipitation 0.00 in 0.12 in 0.83 in (1959)
Month to date precipitation 2.67 3.71  
Year to date precipitation 2.67 3.71  
Sea Level Pressure  
Sea Level Pressure 30.21 in    
Wind  
Wind Speed 2 mph (NNE)    
Max Wind Speed 10 mph    
Max Gust Speed 20 mph    
Visibility 10 miles    
Events      
T = Trace of Precipitation, MM = Missing Value Source: NWS Daily Summary

Daily Weather History Graph

Daily Weather History Graph

Search for Another Location

Airport or City:

Trip Planner

Search our weather history database for the weather conditions in past years. The results will help you decide how hot, cold, wet, or windy it might be!

Date:

Astronomy

Jan. 31, 2014 Rise Set
Actual Time 7:15 AM EST 5:51 PM EST
Civil Twilight 6:49 AM EST 6:17 PM EST
Nautical Twilight 6:20 AM EST 6:47 PM EST
Astronomical Twilight 5:51 AM EST 7:16 PM EST
Moon 7:30 AM EST (1/31) 7:07 PM EST (1/31)
Length of Visible Light 11h 27m
Length of Day
10h 35m
New Moon, 1% of the Moon is Illuminated
Jan 31
New Moon
Feb 6
First Quarter
Feb 14
Full
Feb 22
Last Quarter
Mar 1
New

Hourly Weather History & Observations

Time (EST) Temp. Windchill Dew Point Humidity Pressure Visibility Wind Dir Wind Speed Gust Speed Precip Events Conditions
12:56 AM 34.0 °F 27.2 °F 27.0 °F 75% 30.22 in 10.0 mi North 8.1 mph - N/A   Overcast
1:56 AM 34.0 °F 31.0 °F 27.0 °F 75% 30.22 in 10.0 mi North 3.5 mph - N/A   Overcast
2:56 AM 35.1 °F 32.2 °F 28.0 °F 76% 30.22 in 10.0 mi NNW 3.5 mph - N/A   Overcast
3:56 AM 36.0 °F 33.3 °F 28.0 °F 73% 30.21 in 10.0 mi North 3.5 mph - N/A   Overcast
4:56 AM 36.0 °F 33.3 °F 27.0 °F 70% 30.20 in 10.0 mi NE 3.5 mph - N/A   Overcast
5:56 AM 35.1 °F 32.2 °F 26.1 °F 70% 30.21 in 10.0 mi North 3.5 mph - N/A   Overcast
6:56 AM 36.0 °F - 27.0 °F 70% 30.21 in 10.0 mi Calm Calm - N/A   Overcast
7:56 AM 36.0 °F - 25.0 °F 64% 30.24 in 10.0 mi Calm Calm - N/A   Overcast
8:56 AM 37.0 °F 31.6 °F 26.1 °F 65% 30.26 in 10.0 mi North 6.9 mph - N/A   Overcast
9:56 AM 39.9 °F - 28.0 °F 63% 30.28 in 10.0 mi Calm Calm - N/A   Overcast
10:39 AM 44.6 °F 43.1 °F 35.6 °F 71% 30.27 in 10.0 mi NNE 3.5 mph - N/A   Mostly Cloudy
10:46 AM 44.6 °F - 35.6 °F 71% 30.27 in 10.0 mi Calm Calm - N/A   Scattered Clouds
10:56 AM 45.0 °F - 36.0 °F 71% 30.27 in 10.0 mi Calm Calm - N/A   Scattered Clouds
11:56 AM 51.1 °F - 39.0 °F 63% 30.23 in 10.0 mi Calm Calm - N/A   Scattered Clouds
12:56 PM 55.0 °F - 37.9 °F 53% 30.20 in 10.0 mi NNW 3.5 mph - N/A   Scattered Clouds
1:56 PM 57.0 °F - 36.0 °F 45% 30.18 in 10.0 mi Variable 3.5 mph - N/A   Scattered Clouds
2:56 PM 59.0 °F - 34.0 °F 39% 30.17 in 10.0 mi Calm Calm - N/A   Scattered Clouds
3:56 PM 60.1 °F - 33.1 °F 36% 30.17 in 10.0 mi Calm Calm - N/A   Scattered Clouds
4:56 PM 60.1 °F - 36.0 °F 41% 30.17 in 10.0 mi Calm Calm - N/A   Partly Cloudy
5:56 PM 52.0 °F - 39.9 °F 63% 30.19 in 10.0 mi SSE 5.8 mph - N/A   Partly Cloudy
6:56 PM 48.0 °F - 39.9 °F 74% 30.19 in 10.0 mi SE 5.8 mph - N/A   Partly Cloudy
7:56 PM 46.9 °F - 41.0 °F 80% 30.19 in 10.0 mi SE 6.9 mph - N/A   Partly Cloudy
8:56 PM 46.0 °F - 41.0 °F 83% 30.20 in 10.0 mi Calm Calm - N/A   Partly Cloudy
9:56 PM 43.0 °F - 39.9 °F 89% 30.21 in 10.0 mi Calm Calm - N/A   Partly Cloudy
10:56 PM 41.0 °F - 39.0 °F 93% 30.20 in 9.0 mi Calm Calm - N/A   Clear
11:56 PM 41.0 °F - 39.9 °F 96% 30.20 in 8.0 mi Calm Calm - N/A   Partly Cloudy